Temperature
16 16 16 16 16 16 16 16 16 16 16 16 16 16 16 16 16 16 16 16 15 15 15 15 15 15 15 15 15 15 15 15 15 15 15 15 15 15 15 15 15 15 15
17 16 16 16 16 16 16 16 16 16 16 16 16 16 16 16 16 16 16 16 15 15 15 15 15 15 15 15 15 15 15 15 15 15 15 15 15 15 15 15 15 14 15
16 16 16 16 16 16 16 16 16 16 16 16 16 16 16 16 16 16 16 15 15 15 15 15 15 15 15 15 15 15 15 15 15 15 15 15 15 15 15 15 14 14 14
16 16 16 16 16 16 16 16 16 16 16 16 16 16 16 16 16 16 16 15 15 15 15 15 15 15 15 15 15 15 15 15 15 14 14 14 14 14 15 15 14 14 14
16 16 16 16 16 16 16 16 16 16 16 16 16 15 15 16 16 16 15 15 15 15 15 15 15 15 15 14 14 15 15 15 14 14 14 14 14 14 14 14 14 14 14
15 15 15 15 16 16 16 16 16 16 16 15 15 15 15 15 15 15 15 15 15 15 15 15 15 15 14 14 14 14 14 14 14 14 14 14 14 14 14 14 14 14 14
15 15 15 15 15 15 16 16 15 15 15 15 15 15 15 15 15 15 15 15 15 15 15 15 15 15 14 14 14 14 14 14 14 14 14 14 14 14 14 14 14 14 14
15 15 15 15 15 15 15 15 15 15 15 15 15 15 15 15 15 15 15 15 15 15 15 15 14 14 14 14 14 14 14 14 14 14 14 14 14 14 14 14 14 14 14
14 14 14 14 14 15 15 15 15 15 15 14 15 15 15 15 15 15 15 15 15 15 15 14 14 14 14 14 14 14 14 14 14 14 14 14 14 14 14 14 14 14 14
14 14 14 14 14 14 14 14 14 14 14 14 14 14 14 14 14 14 14 14 15 15 15 14 14 14 14 14 14 14 14 14 14 14 14 13 14 14 14 14 14 14 14
13 13 13 13 14 14 14 14 14 14 14 14 14 14 14 14 14 14 14 14 14 14 14 14 14 14 14 14 14 14 14 14 14 14 13 13 14 14 14 14 14 14 14
12 13 13 13 13 13 13 13 13 13 13 13 14 14 14 14 14 14 14 14 14 14 14 14 14 14 13 13 13 14 14 14 14 13 13 13 13 13 13 13 13 13 13
12 12 12 12 13 13 13 13 13 13 13 13 13 13 13 13 13 13 13 14 13 13 14 14 13 13 13 13 13 13 13 13 13 13 13 13 13 13 13 13 13 13 13
11 11 11 12 12 12 13 13 13 13 13 13 13 13 13 13 13 13 13 13 13 13 13 13 13 13 13 13 13 13 13 13 13 13 13 13 13 13 13 13 13 13 13
10 11 11 11 11 12 12 12 12 13 13 13 13 12 13 13 13 13 13 13 13 13 13 13 13 13 13 13 13 13 13 13 13 13 13 13 13 13 13 13 13 12 12
10 10 10 11 11 11 12 12 12 12 12 12 12 12 12 12 13 13 13 13 12 12 13 13 12 12 12 12 12 12 13 13 13 13 13 12 12 12 12 12 12 12 12
10 10 10 10 10 11 11 12 12 12 12 12 12 12 12 12 12 12 12 12 12 12 12 12 12 12 12 12 12 12 12 12 12 12 12 12 12 12 12 12 12 12 12
9 10 10 10 10 10 11 11 11 11 11 11 11 12 12 12 12 12 12 12 12 12 12 12 12 12 12 12 12 12 12 12 12 12 12 12 12 12 12 12 12 12 12
9 9 9 9 9 10 10 11 11 11 11 11 11 11 11 11 11 12 12 12 12 12 12 11 11 11 11 11 11 12 12 12 12 12 12 12 12 12 12 12 11 11 11
8 8 9 9 9 9 9 10 10 10 10 10 11 11 11 11 11 11 11 11 11 11 11 11 11 11 11 11 11 11 11 11 11 11 11 11 11 11 11 11 11 11 11
7 8 8 8 8 9 9 9 9 10 10 10 10 10 10 11 11 11 11 11 11 11 11 11 11 11 11 11 11 11 11 11 11 11 11 11 11 11 11 11 11 11 11
7 7 7 7 8 8 8 9 9 9 10 10 10 10 10 10 10 10 11 11 11 11 11 11 11 11 11 11 11 10 10 10 10 10 10 10 10 10 10 10 10 10 10
6 6 6 7 7 7 8 8 8 9 9 9 9 9 9 10 10 10 10 10 10 10 11 11 11 11 11 11 11 11 10 10 10 10 10 10 10 10 10 10 10 10 10
5 5 6 6 6 7 7 7 8 8 8 9 9 9 9 9 9 9 10 10 10 10 10 10 10 11 11 11 10 10 11 11 10 9 9 9 9 10 10 10 9 9 9
5 5 5 5 6 6 6 7 7 8 8 8 8 9 9 9 9 9 9 9 10 10 10 10 10 10 10 11 10 10 10 10 10 10 9 9 9 9 9 9 9 9 9
4 5 5 5 5 6 6 6 6 7 7 8 8 8 8 8 8 9 9 9 9 9 9 10 10 10 10 10 10 10 10 10 10 10 10 9 9 9 9 9 9 9 9
Wind_Speed
6 10 16 15 15 15 16 16 15 15 16 16 16 16 16 16 17 17 16 16 16 17 18 18 19 19 19 19 20 20 21 21 20 20 19 19 20 20 20 20 19 18 20
9 14 17 16 16 16 16 16 16 16 15 16 16 16 15 15 15 16 16 15 16 17 18 18 18 19 19 19 19 20 20 20 19 19 19 19 20 20 20 20 19 18 20
11 14 16 16 16 16 16 16 16 15 15 15 15 15 15 15 15 15 15 15 15 16 17 18 18 18 18 18 18 18 18 18 18 18 17 16 18 19 19 19 19 20 20
11 13 15 16 16 16 16 16 15 15 14 14 15 15 15 15 14 15 15 15 16 16 17 17 17 17 16 16 17 17 17 18 17 16 15 14 16 18 19 19 19 19 19
9 12 14 17 16 16 16 15 15 15 14 14 14 14 15 15 14 14 15 15 16 16 16 16 16 15 15 15 16 17 17 17 17 16 15 14 15 17 18 18 18 18 18
8 11 14 16 16 15 15 15 15 15 14 14 14 14 14 14 15 15 15 16 16 16 16 15 15 14 14 15 15 17 17 17 16 15 14 13 14 17 17 17 18 18 18
8 10 13 15 15 15 15 14 15 15 15 14 14 13 14 14 14 15 15 15 15 15 15 15 14 14 14 15 16 17 17 16 15 14 13 13 14 16 17 17 17 17 17
9 9 12 13 13 14 14 14 14 15 15 14 13 13 14 14 14 14 14 14 15 15 14 14 13 13 14 15 16 17 16 14 13 13 13 13 14 15 16 16 16 16 16
8 8 9 10 11 12 13 13 13 14 15 14 13 13 14 13 13 13 14 14 14 14 14 13 13 13 13 14 15 15 15 14 12 11 11 12 13 14 15 15 15 15 15
7 6 7 8 9 9 10 12 12 13 14 14 14 14 14 13 13 13 14 14 14 14 13 13 13 13 13 13 14 15 15 14 12 10 10 12 13 14 14 14 14 14 14
6 5 5 6 7 8 9 10 11 12 13 13 14 15 13 12 12 12 13 14 14 13 13 12 12 12 12 12 13 13 13 12 11 9 9 12 13 13 13 14 13 13 13
7 5 4 5 5 6 7 8 9 9 11 11 11 12 11 11 11 10 12 14 13 13 12 11 11 11 10 10 10 11 11 11 10 9 9 12 12 13 13 13 13 13 13
7 6 5 4 5 5 5 6 6 7 8 9 10 10 10 10 9 9 9 10 10 11 10 10 10 8 8 8 8 9 10 10 9 8 9 11 12 12 12 12 11 12 11
6 5 5 4 4 4 5 5 6 5 6 7 8 10 10 7 7 8 7 8 8 8 8 8 7 8 7 8 8 9 9 9 9 9 9 10 11 11 11 11 11 11 10
5 4 5 4 4 4 4 4 5 5 5 7 9 10 10 7 6 7 6 7 7 8 7 7 7 7 7 7 8 8 8 9 9 9 8 9 10 10 10 10 10 10 10
2 3 4 5 4 4 3 3 4 5 6 7 8 9 11 9 8 7 6 6 6 7 8 7 7 7 6 7 7 8 8 8 8 9 9 9 10 10 10 9 9 9 9
2 2 3 4 3 4 4 4 5 5 6 6 7 9 10 10 9 7 6 5 7 8 8 8 7 7 6 6 6 7 7 7 8 8 8 8 8 9 9 9 8 8 8
1 2 2 2 3 3 3 3 4 5 6 6 7 8 9 10 10 8 6 5 8 8 8 6 5 5 4 4 4 4 5 6 7 7 7 7 7 7 8 8 8 7 7
1 1 1 1 2 2 3 3 4 5 5 6 6 7 8 10 10 9 6 6 9 8 6 6 4 4 5 5 4 4 4 4 5 6 6 7 7 7 7 7 7 7 6
1 1 1 1 1 1 1 3 3 3 3 4 5 6 8 9 10 9 7 7 8 6 4 5 5 4 5 5 5 5 4 4 5 5 4 5 6 6 6 6 6 6 5
3 2 1 1 1 1 2 3 4 4 4 3 4 6 8 8 9 9 7 7 6 5 6 6 6 6 4 5 5 4 4 4 4 3 3 4 4 5 6 6 6 6 5
3 2 0 0 0 1 1 3 4 5 4 4 3 5 7 8 8 8 7 6 6 5 6 6 6 4 3 3 4 4 2 2 2 3 2 2 3 4 4 4 5 5 5
3 3 2 1 1 1 1 1 1 2 2 2 3 3 4 7 8 8 8 7 6 5 6 7 6 6 5 2 2 4 4 3 1 1 1 1 1 2 2 3 4 4 4
3 3 2 2 1 1 1 1 2 4 4 4 5 4 4 6 7 8 8 7 6 5 6 6 5 4 6 5 2 1 2 4 4 2 0 1 1 1 1 2 3 4 4
4 4 3 2 2 1 1 1 2 3 3 3 4 4 4 4 5 7 8 7 6 5 5 6 5 4 4 5 3 2 2 2 2 3 2 1 0 0 0 1 2 3 4
5 5 4 3 3 2 1 1 3 4 3 4 5 6 5 4 3 4 6 6 6 5 6 6 6 6 4 4 3 3 3 3 3 3 3 2 2 1 0 1 1 2 3
Wind_Direction
162 164 151 145 140 135 130 126 121 117 114 112 109 107 107 107 107 107 106 106 106 105 102 99 96 94 92 92 91 89 87 85 83 81 79 79 82 82 81 79 78 77 80
154 158 150 146 142 137 133 128 124 120 117 116 114 112 112 111 112 112 111 110 109 107 104 101 98 96 94 94 93 91 88 87 84 81 78 78 81 82 82 80 80 82 80
145 152 148 145 142 139 135 131 127 123 120 119 118 117 116 114 114 115 114 113 112 109 105 102 100 98 95 94 94 93 90 87 85 81 78 80 83 84 84 82 81 81 80
145 148 149 145 142 141 138 134 131 128 125 122 121 121 119 117 117 117 116 113 113 111 107 104 102 99 97 96 95 94 93 88 85 80 76 77 82 86 86 85 83 82 81
135 144 148 145 143 141 140 137 135 133 131 127 125 124 122 120 118 118 117 114 113 113 110 107 104 100 96 95 96 96 96 90 86 82 78 77 82 86 87 85 85 84 82
122 137 145 143 143 141 140 140 139 138 134 130 129 128 124 123 120 117 117 115 115 114 113 109 106 100 95 96 99 99 97 93 88 84 80 79 85 89 89 88 86 86 84
125 130 143 140 140 140 140 142 143 141 136 133 132 131 127 124 122 120 118 119 119 117 115 112 108 102 98 96 99 101 98 96 91 88 83 85 89 92 92 91 88 87 85
126 127 135 134 136 138 139 141 144 142 138 136 136 133 130 128 125 123 123 124 123 121 119 116 112 106 101 99 100 99 99 98 95 90 88 90 93 95 95 93 91 89 86
115 115 122 130 132 136 136 137 139 141 139 137 137 134 130 128 128 129 129 128 127 126 123 120 116 109 103 102 101 99 99 98 96 95 94 94 95 98 98 96 94 92 90
109 109 111 120 123 129 135 135 135 137 137 136 134 131 130 130 130 133 133 131 129 128 127 123 118 111 105 104 102 101 100 98 96 96 97 101 100 101 100 98 97 95 93
118 114 110 110 114 120 130 135 134 134 133 133 133 132 128 128 130 131 134 134 133 132 130 126 120 113 107 104 104 102 101 101 99 99 100 106 103 103 102 101 100 99 96
143 139 126 119 120 124 131 133 132 133 133 132 133 130 128 129 131 133 137 139 137 134 131 127 123 117 112 106 103 103 104 106 104 103 104 107 105 105 105 104 103 102 99
157 151 145 135 131 124 124 136 132 134 136 136 137 133 130 128 128 130 130 134 135 133 127 125 121 117 115 112 110 108 110 109 108 106 108 109 108 107 108 108 107 105 102
151 158 154 140 132 126 131 143 139 137 141 143 147 142 136 132 132 137 135 138 140 139 131 128 124 121 120 119 117 113 112 112 112 108 108 111 111 110 108 109 109 108 106
157 157 165 155 145 135 131 146 147 146 150 151 152 151 145 143 146 148 148 147 146 143 139 131 126 123 121 121 119 115 115 115 113 110 110 111 114 112 108 108 111 109 107
145 170 167 168 156 144 144 153 153 155 155 154 155 158 154 153 153 154 155 154 152 151 150 142 132 124 118 114 111 114 119 119 114 112 110 109 109 111 110 108 110 112 109
167 152 170 166 154 154 155 159 156 158 157 158 161 160 156 157 157 156 158 159 159 154 143 133 123 114 108 104 100 106 113 116 117 113 111 112 110 108 109 107 108 108 109
123 140 163 171 163 167 163 155 158 162 159 160 161 160 159 161 160 156 157 161 159 151 142 134 126 116 108 105 99 98 102 105 108 113 112 113 114 113 113 111 107 106 106
116 152 146 144 168 181 173 158 157 160 158 160 161 162 164 164 162 158 158 158 154 146 143 140 125 127 124 116 108 96 88 93 97 106 106 111 116 116 113 112 110 107 106
93 127 138 124 145 150 171 155 150 143 152 160 164 169 168 164 161 157 157 156 150 145 143 140 133 119 125 125 107 88 70 69 80 89 102 110 116 118 118 112 111 108 107
26 50 95 100 118 126 168 181 175 177 181 182 175 175 170 166 161 157 155 156 154 155 155 145 137 128 124 126 108 89 57 51 61 66 88 103 105 117 121 119 117 116 110
13 2 355 122 263 187 210 209 196 184 185 187 178 175 171 170 167 162 158 161 161 152 149 151 142 139 146 149 136 126 108 39 31 39 60 100 106 112 112 122 124 122 116
2 338 322 269 261 256 274 218 167 153 150 163 181 186 178 173 175 168 167 163 162 161 164 166 160 155 162 169 153 145 153 186 180 7 37 66 90 101 114 126 131 132 128
334 326 316 311 278 234 194 182 183 186 186 194 192 190 184 175 176 175 171 167 164 165 168 174 171 165 160 166 161 125 134 144 150 163 314 20 62 92 108 122 125 130 133
338 336 333 326 297 264 230 197 199 217 201 189 176 173 179 178 177 178 174 171 169 171 174 172 168 169 166 166 162 145 116 99 111 145 178 211 4 347 121 128 132 134 144
352 352 350 343 323 303 276 220 208 209 203 185 180 181 183 184 182 182 180 178 177 176 179 177 173 173 172 163 158 147 151 154 164 151 167 182 194 243 263 157 160 166 162
Height
1526 1529 1531 1533 1535 1537 1538 1539 1541 1542 1543 1544 1545 1545 1546 1547 1547 1548 1549 1549 1550 1551 1551 1552 1552 1552 1553 1553 1553 1553 1553 1553 1553 1553 1553 1553 1553 1553 1553 1553 1553 1553 1553
1524 1528 1530 1533 1535 1537 1538 1540 1541 1542 1543 1544 1545 1546 1547 1548 1549 1549 1550 1551 1551 1552 1553 1553 1554 1554 1555 1555 1555 1555 1555 1555 1556 1556 1556 1556 1556 1556 1556 1556 1556 1556 1556
1524 1527 1530 1533 1535 1537 1538 1540 1541 1543 1544 1545 1546 1547 1548 1549 1550 1550 1551 1552 1553 1554 1554 1555 1555 1556 1556 1557 1557 1557 1557 1558 1558 1558 1558 1558 1558 1558 1558 1558 1558 1558 1558
1525 1527 1530 1533 1535 1537 1538 1540 1541 1543 1544 1546 1547 1548 1549 1549 1551 1552 1552 1553 1554 1555 1556 1556 1557 1558 1558 1559 1559 1559 1560 1560 1560 1560 1560 1560 1560 1561 1561 1561 1561 1561 1561
1525 1527 1530 1532 1535 1537 1538 1540 1541 1543 1544 1546 1547 1548 1549 1550 1551 1552 1553 1554 1555 1556 1557 1558 1558 1559 1560 1560 1561 1561 1561 1562 1562 1562 1562 1562 1563 1563 1563 1563 1563 1563 1563
1525 1527 1530 1532 1535 1536 1538 1540 1542 1543 1544 1546 1547 1549 1550 1551 1552 1553 1554 1555 1556 1557 1558 1559 1560 1561 1561 1562 1562 1563 1563 1564 1564 1564 1564 1564 1565 1565 1565 1565 1565 1565 1565
1525 1527 1530 1532 1534 1536 1538 1540 1541 1543 1544 1546 1548 1549 1550 1551 1553 1554 1555 1556 1557 1558 1559 1560 1561 1562 1563 1563 1564 1564 1565 1566 1566 1566 1566 1566 1567 1567 1567 1567 1567 1567 1567
1524 1527 1529 1532 1534 1536 1538 1540 1541 1543 1544 1546 1548 1549 1550 1552 1553 1554 1556 1557 1558 1559 1560 1561 1562 1563 1564 1565 1565 1566 1567 1567 1568 1568 1568 1568 1569 1569 1569 1569 1569 1569 1569
1525 1527 1529 1531 1533 1535 1537 1539 1541 1543 1544 1546 1548 1549 1550 1552 1553 1555 1556 1557 1558 1560 1561 1562 1563 1564 1565 1566 1567 1568 1568 1569 1569 1569 1570 1570 1570 1570 1570 1570 1570 1570 1570
1525 1526 1528 1530 1532 1534 1537 1539 1541 1542 1544 1546 1548 1549 1550 1552 1553 1555 1556 1557 1559 1560 1561 1563 1564 1565 1566 1567 1568 1569 1570 1570 1571 1571 1571 1572 1572 1572 1572 1572 1572 1572 1572
1524 1526 1527 1529 1531 1534 1536 1538 1540 1542 1544 1545 1547 1549 1550 1551 1553 1555 1556 1557 1559 1560 1562 1563 1564 1566 1567 1568 1569 1570 1571 1571 1572 1572 1573 1573 1573 1574 1574 1574 1574 1574 1574
1522 1524 1526 1528 1530 1532 1535 1537 1539 1541 1543 1545 1546 1548 1550 1551 1553 1554 1556 1558 1559 1561 1562 1563 1565 1566 1567 1568 1570 1571 1571 1572 1573 1574 1574 1575 1575 1575 1575 1575 1575 1575 1575
1521 1523 1525 1527 1530 1531 1533 1535 1538 1540 1542 1544 1545 1547 1549 1551 1552 1554 1556 1557 1559 1561 1562 1563 1565 1566 1568 1569 1570 1571 1572 1573 1574 1574 1575 1576 1576 1576 1576 1576 1577 1577 1577
1520 1522 1524 1526 1528 1530 1532 1534 1536 1538 1540 1542 1544 1546 1548 1550 1551 1553 1555 1557 1559 1560 1562 1563 1565 1566 1568 1569 1570 1571 1573 1574 1574 1575 1576 1577 1577 1577 1577 1578 1578 1578 1578
1520 1521 1523 1525 1527 1529 1530 1532 1535 1537 1539 1541 1543 1545 1547 1549 1550 1553 1555 1557 1558 1560 1562 1563 1565 1566 1568 1569 1570 1572 1573 1574 1575 1576 1576 1577 1578 1578 1578 1579 1579 1579 1579
1518 1520 1522 1523 1525 1527 1529 1531 1533 1535 1537 1540 1542 1544 1546 1548 1550 1552 1554 1556 1558 1560 1561 1563 1564 1566 1567 1569 1570 1572 1573 1574 1575 1576 1576 1577 1578 1578 1579 1579 1579 1579 1579
1517 1518 1520 1522 1524 1525 1527 1529 1531 1533 1535 1537 1540 1542 1544 1547 1549 1551 1553 1554 1557 1559 1561 1562 1564 1565 1567 1569 1570 1572 1573 1574 1575 1576 1577 1577 1578 1579 1579 1579 1580 1580 1580
1515 1516 1518 1520 1521 1523 1525 1527 1529 1531 1533 1535 1538 1540 1542 1545 1547 1549 1551 1553 1555 1557 1559 1561 1563 1564 1566 1568 1570 1571 1573 1574 1575 1576 1577 1577 1578 1578 1579 1579 1580 1580 1580
1513 1514 1516 1517 1519 1521 1523 1525 1527 1529 1531 1533 1536 1538 1540 1542 1545 1547 1549 1552 1554 1556 1558 1560 1562 1564 1565 1567 1569 1571 1572 1573 1574 1575 1576 1577 1578 1578 1579 1579 1579 1579 1579
1512 1512 1513 1515 1517 1519 1521 1523 1525 1527 1529 1531 1533 1535 1537 1540 1542 1545 1547 1549 1551 1554 1556 1558 1560 1562 1564 1566 1568 1570 1571 1573 1574 1574 1575 1576 1577 1577 1578 1578 1578 1578 1579
1509 1510 1511 1512 1514 1515 1517 1519 1521 1523 1525 1528 1531 1533 1535 1537 1539 1542 1544 1546 1549 1551 1553 1556 1558 1560 1563 1565 1566 1568 1571 1572 1573 1574 1574 1575 1576 1576 1577 1577 1578 1578 1578
1507 1508 1508 1509 1511 1512 1514 1516 1518 1520 1522 1525 1527 1529 1532 1534 1536 1539 1541 1543 1546 1548 1551 1553 1556 1558 1560 1562 1564 1566 1569 1572 1571 1572 1573 1574 1574 1575 1576 1576 1577 1577 1577
1505 1505 1506 1507 1508 1510 1511 1513 1516 1518 1519 1521 1523 1526 1528 1531 1533 1535 1538 1541 1543 1545 1548 1550 1553 1555 1557 1560 1562 1564 1566 1567 1569 1571 1571 1572 1573 1574 1574 1575 1575 1576 1576
1504 1504 1504 1505 1506 1508 1509 1510 1511 1513 1514 1516 1519 1522 1525 1528 1530 1532 1535 1537 1540 1542 1545 1547 1550 1553 1555 1557 1559 1561 1564 1564 1566 1568 1570 1570 1571 1572 1573 1573 1574 1574 1575
1502 1503 1503 1503 1503 1505 1506 1507 1509 1511 1513 1515 1517 1519 1522 1524 1527 1529 1531 1534 1536 1539 1541 1544 1547 1549 1552 1554 1556 1558 1560 1561 1563 1564 1566 1568 1569 1570 1571 1571 1572 1572 1573
1501 1501 1501 1500 1500 1501 1503 1504 1506 1507 1509 1511 1513 1515 1518 1520 1523 1525 1528 1531 1533 1535 1538 1540 1543 1546 1549 1551 1553 1555 1557 1558 1560 1561 1563 1564 1566 1568 1569 1569 1570 1571 1571